Regional Weather Roundup
Issued by NWS Sterling, VA

Current Version | Previous Version | Text Only | Print | Product List | Glossary On
Versions: 1 2 3 4 5 6 7 8 9 10 11 12 13 14 15 16 17 18 19 20 21 22 23 24 25 26 27 28 29 30 31 32 33 34 35 36 37 38 39 40 41 42 43 44 45 46 47 48 49 50
000
ASUS41 KLWX 262111
RWRLWX

REGIONAL WEATHER ROUNDUP
NATIONAL WEATHER SERVICE BALTIMORE MD/WASHINGTON DC
500 PM EDT FRI MAY 26 2017

Note: "FAIR" indicates few or no clouds below 12,000 feet
with no significant weather and/or obstructions to visibility.
 TC=TEMPERATURE CELSIUS

 * =Non NWS site. Station does not report precipitation (e.g. rain,
    snow, etc.), thunder, or fog.

DCZ001-MDZ009-015-VAZ040>042-051-053>054-262200-
WASHINGTON METRO

CITY           SKY/WX    TMP DP  RH WIND       PRES   REMARKS
WASHINGTON NAT PTSUNNY   75  53  46 W18G28    29.79R
DULLES         PTSUNNY   75  52  44 W30G39    29.79R
ANDREWS AFB    PTSUNNY   73  53  49 NW13G26   29.77R
FT BELVOIR     PTSUNNY   76  54  45 NW18      29.78R
QUANTICO       CLOUDY    79  55  43 NW13      29.80R
COLLEGE PARK*  CLOUDY    73  53  49 W16G29    29.78R
LEESBURG*      PTSUNNY   73  59  60 W15G21    29.81S
MANASSAS*      MOSUNNY   77  54  44 NW23G29   29.79S
GAITHERSBURG*  PTSUNNY   72  54  53 W22G36    29.80R

$$

MDZ006>007-011-014-262200-
BALTIMORE METRO

CITY           SKY/WX    TMP DP  RH WIND       PRES   REMARKS
BWI AIRPORT    PTSUNNY   74  57  55 W21G31    29.76R
MD SCIENCE CTR   N/A     75  55  49 MISG      29.76R
MARTIN STATE   CLOUDY    75  61  60 W15G24    29.76S
ANNAPOLIS      CLOUDY    75  56  51 NW10G21   29.76R
FORT MEADE*    PTSUNNY   72  55  56 W12G23    29.79R

$$

MDZ012-015-019>023-262200-
MARYLAND EASTERN SHORE

CITY           SKY/WX    TMP DP  RH WIND       PRES   REMARKS
OCEAN CITY     CLOUDY    74  59  59 W7        29.76R
SALISBURY      CLOUDY    76  56  49 W13G24    29.76R
BAY BRIDGE AP* PTSUNNY   73  57  56 NW14G20   29.76S
CAMBRIDGE*     CLOUDY    73  55  53 W10G22    29.77R
EASTON*        PTSUNNY   75  55  50 NW12G20   29.80R

$$

MDZ017>025-262200-
SOUTHERN MARYLAND

CITY           SKY/WX    TMP DP  RH WIND       PRES   REMARKS
PATUXENT RIVER PTSUNNY   77  57  50 W18       29.78R
ST INIGOES     PTSUNNY   76  56  49 W14G23    29.78R
LEONARDTOWN*   CLOUDY    73  54  49 W9        29.80S

$$

MDZ003>005-262200-
NORTH CENTRAL MARYLAND

CITY           SKY/WX    TMP DP  RH WIND       PRES   REMARKS
FREDERICK*     PTSUNNY   73  61  64 MISG      29.82R
HAGERSTOWN APT CLOUDY    68  55  63 W13       29.81R
WESTMINSTER*   CLOUDY    72  57  60 W17G28    29.79R

$$

MDZ501>502-262200-
WESTERN MARYLAND

CITY           SKY/WX    TMP DP  RH WIND       PRES   REMARKS
OAKLAND*         N/A     57  50  77 W13G22    29.90S
CUMBERLAND*    MOSUNNY   70  54  56 W8        29.87S

$$

VAZ025>031-262200-
SHENANDOAH VALLEY

CITY           SKY/WX    TMP DP  RH WIND       PRES   REMARKS
WINCHESTER*    PTSUNNY   70  52  52 W14G26    29.82R
FRONT ROYAL*   PTSUNNY   73  54  49 W13G24    29.81S
LURAY*         PTSUNNY   75  52  43 W15G25    29.84S
NEW MARKET*    PTSUNNY   74  51  43 W7        29.83S
STAUNTON*      SUNNY     74  51  44 W12G20    29.87F
WAYNESBORO*    SUNNY     74  53  48 W6G20     29.86F

$$

WVZ021-048>050-054>055-262200-
EASTERN WEST VIRGINIA PANHANDLE

CITY           SKY/WX    TMP DP  RH WIND       PRES   REMARKS
MARTINSBURG    CLOUDY    73  54  51 W12G22    29.80F
PETERSBURG*    MOSUNNY   74  56  53 W3        29.85F

$$

VAZ036>039-050-262200-
CENTRAL FOOTHILLS

CITY           SKY/WX    TMP DP  RH WIND       PRES   REMARKS
CHARLOTTESVILL SUNNY     79  52  38 W7        29.82S
CULPEPER*      SUNNY     78  53  43 W14G21    29.82R
ORANGE*        CLOUDY    77  52  41 W9G17     29.81S
GORDONSVILLE*  MOSUNNY   78  52  40 W7        29.81S
WARRENTON*     SUNNY     79  49  35 W12G18    29.79S

$$

VAZ055>057-262200-
NORTH AND CENTRAL PIEDMONT

CITY           SKY/WX    TMP DP  RH WIND       PRES   REMARKS
FREDERICKSBRG* MOSUNNY   79  54  42 W9G21     29.79S
STAFFORD*      MOSUNNY   77  52  42 NW17G25   29.84S

$$

NCZ024-NYZ072-PAZ021-071-VAZ022-071-262200-
OTHER REGIONAL OBSERVATIONS

CITY           SKY/WX    TMP DP  RH WIND       PRES   REMARKS
NEW YORK CITY  CLOUDY    72  55  55 MISG      29.65S
PHILADELPHIA   PTSUNNY   74  54  49 W21G30    29.70R
PITTSBURGH     PTSUNNY   67  55  65 W15       29.86F
ROANOKE        MOSUNNY   78  51  38 NW15      29.91F
RICHMOND       PTSUNNY   80  55  42 W17       29.81S
RALEIGH        MOSUNNY   80  57  45 W8G17     29.90F

$$

ANZ530>537-262200-
MARINE OBSERVATIONS

STATION/POSITION TIME  TEMP    WIND        PRES
                       AIR SEA DIR/SP/G
                 (UTC) (F)     (DEG/KT/KT) (MB)
THOMAS PT LIGHT  2100   73 65  300/ 13/ 14   N/A
BALT KEY BRIDGE  2048   72     280/ 25/ 29 1007.0R
COVE POINT       2048   74     310/ 11/ 15 1009.0R
LEWISETTA        2048   76 68  320/ 11/ 15 1008.6R
SOLOMONS ISLAND  2048   75 67  290/ 10/ 15   N/A
PINEY POINT      2042          320/ 12/ 12   N/A

$$




USA.gov is the U.S. government's official web portal to all federal, state and local government web resources and services.